Location: Arrien
(42.8963°N, 1.0429°E)
Time: 21:33:28
(UTC+00:00)

SL-16 R/B - Pass Details

Date: 20 March 2026
Orbit: 841 x 845 km, 71.0° (Epoch: 11 April)

Event Time Altitude Azimuth Distance (km) Brightness Sun altitude
Exits shadow 00:41:38 11° 2° (N) 2,402 5.1 -46.5°
Drops below altitude 10° 00:41:52 10° 4° (N) 2,473 5.2 -46.5°
Sets 00:44:45 0° 17° (NNE) 3,412 6.1 -46.3°
